Location: Brownlee
(50.7397°N, 106.0159°W)
Time: 05:50:41
(UTC+00:00)

Envisat - Visible Passes

Search period start: 02 December 2022 00:00
Search period end: 12 December 2022 00:00
Orbit: 763 x 765 km, 98.2° (Epoch: 01 December)

Date Brightness Start Highest point End Pass type
(mag) Time Alt. Az. Time Alt. Az. Time Alt. Az.
02 Dec 5.9 10:00:57 10° NE 10:01:31 12° NE 10:01:31 12° NE visible
02 Dec 3.9 11:38:37 10° NNE 11:41:41 38° N 11:41:41 38° N visible
02 Dec 4.5 13:18:58 10° NNW 13:21:51 16° NW 13:21:51 16° NW visible
03 Dec 4.7 11:01:42 10° NNE 11:04:04 26° NE 11:04:04 26° NE visible
03 Dec 4.1 12:41:08 10° N 12:44:15 26° NW 12:44:15 26° NW visible
04 Dec 6.0 00:03:52 10° WSW 00:05:55 12° W 00:08:00 10° WNW visible
04 Dec 5.5 10:25:11 10° NE 10:26:29 16° NE 10:26:29 16° NE visible
04 Dec 4.0 12:03:45 10° N 12:06:39 32° N 12:06:39 32° N visible
04 Dec 4.8 13:45:29 10° NW 13:46:37 11° NW 13:46:50 11° NW visible
05 Dec 4.4 11:26:39 10° NNE 11:29:04 29° NNE 11:29:04 29° NNE visible
05 Dec 4.4 13:06:40 10° NNW 13:09:15 18° NW 13:09:15 18° NW visible
06 Dec 5.2 10:49:50 10° NNE 10:51:29 20° NE 10:51:29 20° NE visible
06 Dec 4.2 12:29:02 10° N 12:31:40 26° NNW 12:31:40 26° NNW visible
06 Dec 5.8 23:50:48 10° WSW 23:53:47 16° W 23:56:48 10° NW visible
07 Dec 5.9 10:13:31 10° NE 10:13:55 12° NE 10:13:55 12° NE visible
07 Dec 4.3 11:51:44 10° N 11:54:05 28° N 11:54:05 28° N visible
07 Dec 4.7 13:32:37 10° NNW 13:34:16 13° NW 13:34:16 13° NW visible
08 Dec 4.9 11:14:43 10° NNE 11:16:31 22° NNE 11:16:31 22° NNE visible
08 Dec 4.4 12:54:27 10° N 12:56:42 19° NNW 12:56:42 19° NNW visible
09 Dec 5.5 10:38:01 10° NNE 10:38:58 15° NE 10:38:58 15° NE visible
09 Dec 4.4 12:16:56 10° N 12:19:08 24° NNW 12:19:08 24° NNW visible
09 Dec 5.7 23:38:04 10° SW 23:41:41 19° W 23:45:19 10° NW visible
10 Dec 4.7 11:39:44 10° NNE 11:41:35 23° N 11:41:35 23° N visible
10 Dec 4.7 13:20:10 10° NNW 13:21:46 14° NW 13:21:46 14° NW visible
11 Dec 5.2 11:02:48 10° NNE 11:04:03 17° NNE 11:04:03 17° NNE visible
11 Dec 4.5 12:42:17 10° N 12:44:13 20° NNW 12:44:13 20° NNW visible
